Welcome to the New NWS' Forecast!
Most changes are behind the scenes, but click here for differences you might notice.
Latest weather observations around

Hartford, Hartford-Brainard Airport (KHFD)

Using English Units (Switch to International System of Units)
Date/ Time (EST) Wind (mph) Vis. (mi) Weather Sky Cond. Temp (°F) Rel. Humidity Wind Chill (°F) Heat Index (°F) Pressure Precip. (in)
Air Dwpt 6 hour Altimeter (inHg) Sea level (inHg) 1 hr 3 hr 6 hr
Max Min
Jan 21 10:53 Calm 10 Clear CLR 45 31     58%     30.18 30.17      
Jan 21 09:53 Calm 9 Clear CLR 40 33     76%     30.17 30.17      
Jan 21 08:53 Calm 8 Clear CLR 31 29     92%     30.17 30.17      
Jan 21 07:53 Calm 9 Mostly Clear FEW100 28 26     92%     30.15 30.15      
Jan 21 06:53 S 3 6 Fog/Mist CLR 26 24     92% 22   30.12 30.11      
Jan 21 05:53 Calm 7 Clear CLR 24 24     100%     30.09 30.09      
Jan 21 04:53 Calm 6 Fog/Mist CLR 27 25     92%     30.08 30.07      
Jan 21 03:53 Calm 8 Clear CLR 28 26     92%     30.07 30.06      
Jan 21 02:53 Calm 7 Clear CLR 27 24     89%     30.06 30.06      
Jan 21 01:53 Calm 7 Clear CLR 28 26     92%     30.04 30.04      
Jan 21 00:53 Calm 9 Clear CLR 28 26     92%     30.02 30.02      
Jan 20 23:53 Calm 10 Clear CLR 30 27     88%     30.01 30.01      
Jan 20 22:53 Calm 10 Clear CLR 29 25     85%     30.01 30.01      
Jan 20 21:53 SSE 3 10 Clear CLR 31 27     85% 28   29.99 29.99      
Jan 20 20:53 W 3 10 Clear CLR 42 27     55% 40   29.98 29.98      
Jan 20 19:53 WNW 5 10 Clear CLR 43 27     53% 40   29.96 29.96      
Jan 20 18:53 5 10 Clear CLR 44 27     51% 41   29.93 29.93      
Jan 20 17:53 SSW 6 10 Clear CLR 44 27     51% 41   29.89 29.89      
Jan 20 16:53 SSW 6 10 Clear CLR 44 27     51% 41   29.86 29.86      
Jan 20 15:53 WSW 5 10 Clear CLR 47 27     46% 45   29.83 29.83      
Jan 20 14:53 WSW 7 10 Clear CLR 47 26     44% 44   29.8 29.8      
Jan 20 13:53 SW 8 10 Clear CLR 47 27     46% 43   29.79 29.79      
Jan 20 12:53 WSW 9 10 Clear CLR 46 26     45% 41   29.78 29.78      
Jan 20 11:53 WSW 8 10 Clear CLR 46 25     43% 42   29.79 29.79      
Jan 20 10:53 7 10 Clear CLR 45 25     45% 41   29.8 29.8      
Jan 20 09:53 SW 7 10 Mostly Cloudy BKN120 42 24     49% 38   29.8 29.8      
Jan 20 08:53 WSW 11 10 Clear CLR 40 23     50% 33   29.8 29.8      
Jan 20 07:53 S 9 10 Clear CLR 34 22     61% 27   29.78 29.78      
Jan 20 06:53 SSW 8 10 Clear CLR 35 22     58% 29   29.78 29.78      
Jan 20 05:53 S 9 10 Clear CLR 33 22     63% 25   29.78 29.78      
Jan 20 04:53 S 10 10 Clear CLR 32 21     64% 24   29.81 29.8      
Jan 20 03:53 S 7 10 Clear CLR 33 22     63% 27   29.84 29.84      
Jan 20 02:53 S 9 10 Clear CLR 33 21     61% 25   29.84 29.84      
Jan 20 01:53 S 7 10 Clear CLR 30 21     69% 23   29.86 29.86      
Jan 20 00:53 S 8 10 Clear CLR 31 21     66% 23   29.87 29.87      
Jan 19 23:53 S 5 10 Clear CLR 29 19     66% 24   29.9 29.9      
Jan 19 22:53 S 5 10 Clear CLR 30 19     63% 25   29.93 29.93      
Jan 19 21:53 S 5 10 Clear CLR 29 19     66% 24   29.95 29.95      
Jan 19 20:53 SSE 3 10 Clear CLR 29 19     66% 25   29.98 29.98      
Jan 19 19:53 S 5 10 Clear CLR 28 20     71% 23   29.98 29.98      
Jan 19 18:53 SSW 5 10 Clear CLR 31 18     58% 26   29.97 29.97      
Jan 19 17:53 S 7 10 Clear CLR 31 18     58% 24   29.96 29.96      
Jan 19 16:53 S 3 10 Clear CLR 33 18     53% 30   29.96 29.96      
Jan 19 15:53 SSW 5 10 Clear CLR 36 18     48% 32   29.96 29.96      
Jan 19 14:53 SSW 5 10 Clear CLR 35 19     52% 31   29.95 29.95      
Jan 19 13:53 WSW 6 10 Clear CLR 35 18     49% 30   29.95 29.95      
Jan 19 12:53 SSW 7 10 Clear CLR 33 17     51% 27   29.97 29.96      
Jan 19 11:53 SSW 6 9 Clear CLR 31 16     53% 25   30 29.99      
Jan 19 09:53 W 7 9 Clear CLR 26 14     60% 18   30.05 30.04      
Jan 19 08:53 W 7 8 Clear CLR 23 13     65% 15   30.05 30.05      
Jan 19 07:53 WSW 3 7 Clear CLR 22 14     71% 17   30.04 30.03      
Jan 19 06:53 Calm 8 Clear CLR 21 13     70%     30.03 30.03      
Jan 19 05:53 WSW 5 9 Mostly Clear FEW037 22 14     71% 16   30.02 30.02      
Jan 19 04:53 6 9 Clear CLR 22 14     71% 14   30.02 30.01      
Jan 19 02:53 WSW 5 9 Mostly Clear FEW028 22 15     75% 16   30.01 30.01      
Jan 19 01:53 WSW 5 10 Clear CLR 24 15     68% 18   30 30      
Jan 19 01:42 Calm 10 Partly Cloudy SCT027 23 15     71%     30        
Jan 19 01:20 Calm 10 Mostly Cloudy BKN027 24 15     68%     30.01        
Jan 19 00:53 WNW 6 10 Clear CLR 24 15     68% 17   30.01 30.01      
Jan 18 23:53 W 5 10 Clear CLR 23 14     68% 17   30.02 30.02      
Jan 18 22:53 WNW 6 10 Clear CLR 23 14     68% 16   30.04 30.04      
Jan 18 21:53 WNW 6 10 Clear CLR 23 14     68% 16   30.04 30.03      
Jan 18 20:53 NW 9 10 Clear CLR 24 14     65% 14   30.02 30.02      
Jan 18 19:53 NW 7 10 Clear CLR 25 14     63% 17   30 30      
Jan 18 18:53 NNW 10 10 Clear CLR 26 14     60% 16   29.98 29.98      
Jan 18 17:53 NW 8 10 Clear CLR 27 14     58% 19   29.96 29.96      
Jan 18 16:53   10 Clear CLR 28 14     55%     29.94 29.93      
Jan 18 15:53 NW 13 10 Clear CLR 30 14     51% 20   29.91 29.91      
Jan 18 14:53 N 10 10 Clear CLR 30 14     51% 21   29.9 29.9      
Jan 18 13:53 N 13 10 Clear CLR 30 13     48% 20   29.9 29.9      
Jan 18 12:53 NNW 14 10 Clear CLR 29 13     51% 18   29.93 29.93      
Jan 18 11:53 N 10 10 Clear CLR 29 13     51% 20   29.97 29.97      
Jun 11 10:53 5 10 Clear CLR 84 63     49%   85 30.01 30.01      
Jun 10 18:53   10 Clear   79 57     47%   79 29.93 29.93      
Jun 10 12:51 SW 8 10 Mostly Cloudy BKN075 82 55     40%   82 29.95        
Jun 10 08:53 E 3 10 Clear CLR 71 56     59%   71 29.97 29.97      
Jun 09 22:53 S 3 10 Clear CLR 61 55     81%     29.84 29.83      
Jun 08 01:53 Calm 10 Clear CLR 53 50     89%     30.02 30.02      
Jun 07 09:53 NNE 10 10 Cloudy OVC060 59 49     69%     29.99 29.98      
Jun 07 08:53 N 8 10 Cloudy SCT055 BKN070 OVC080 57 50     77%     29.98 29.98      
Jun 06 14:53 N 9 6 Light Rain and Fog/Mist BKN014 OVC019 51 49     92%     29.82 29.82 0    
Notice The following observation data may not be complete
Jun 06 08:11   2.5 Light Rain and Fog/Mist BKN007 OVC014          %         0    
Jun 06 07:49 N 10 2.5 Light Rain and Fog/Mist OVC012 52 48     87%     29.79   0